Погода в Пае

Россия / Республика Карелия     61°12′26″N   34°26′10″E
темп.,
°C
ветер,
м/с
пор.,
м/с
влажн.,
%
обл.,
%
осадки,
мм/ч
давл.,
гПа
погр.,
м
14 мая, пт
пт1400:00+14вюв118099 0.0 101110
03:00+13ю4988100 0.4 1011478
06:00+12ююз3996100 6.9 1011586
09:00+14ююз478225 7.5 1012822
12:00+15ююз587475 2.9 10131262
15:00+16зюз365875 3.6 10131296
18:00+15ю0167100 0.0 101251
21:00+13ю2477100 0.1 101282
15 мая, сб
сб1500:00+12ююз228323 0.0 101219
03:00+10ююв11875 0.0 101210
06:00+12юв13805 0.0 1011109
09:00+17вюв235913 0.0 1010434
12:00+19вюв2351100 0.0 10101100
15:00+19в2353100 0.0 1009974
18:00+19св355790 0.0 1007792
21:00+13ссв287493 0.0 1007176
16 мая, вс
вс1600:00+11ссв3780100 0.1 1006144
03:00+10ссв3990100 0.2 1006227
06:00+10ссв41095100 0.2 1007276
09:00+12ссв5982100 0.2 1007439
12:00+14ссв4775100 0.0 1008576
15:00+15св3670100 0.1 1009606
18:00+15ссв3667100 0.0 1009518
21:00+12ссв387790 0.0 1010258
17 мая, пн
пн1700:00+9с288586 0.0 1011211
03:00+7с269153 0.0 1013164
06:00+9ссв248459 0.0 1013166
09:00+14св11635 0.0 1014494
12:00+19всв11511 0.0 1014963
15:00+20в22464 0.0 10141311
18:00+19в33540 0.0 1014873
21:00+13в2681100 0.0 1014141
18 мая, вт
вт1800:00+10в2686100 0.0 1013119
03:00+11в289784 0.0 1013162
06:00+13в3109375 0.0 1011245
09:00+17вюв4107898 0.1 1010518
12:00+22вюв61162100 0.1 10081060
15:00+26юв6114847 0.1 10061944
18:00+25юв51254100 0.0 10041698
21:00+19юв51472100 0.6 1003603